Location: DARK SKY Beskydy - Park tmavé oblohy, www.darkskybeskydy.cz
(49.4926°N, 18.5016°E)
Time: 17:52:19
(UTC+02:00)

PCSat - Pass Details

Date: 08 August 2024
Orbit: 781 x 793 km, 67.1° (Epoch: 08 September)

Event Time Altitude Azimuth Distance (km) Brightness Sun altitude
Rises 03:50:13 0° 318° (NW) 3,301 12.8 -13.5°
Reaches altitude 10° 03:52:53 10° 308° (NW) 2,367 12.0 -13.2°
Maximum altitude 03:57:33 30° 248° (WSW) 1,381 10.3 -12.7°
Drops below altitude 10° 04:02:13 10° 189° (S) 2,350 11.6 -12.2°
Enters shadow 04:02:42 - 186° (S) 2,511 11.7 -12.1°
